[[{"header":{"parameterUnit":"m.s-1","parameterCategory":2,"la1":30.2991,"la2":30.254,"lo1":-89.0895,"lo2":-89.0444,"dy":0.0017,"dx":0.0017,"nx":28,"ny":28,"refTime":"2025-08-30T03:00:00:Z","depth":"0","parameterNumber":2,"parameterNumberName":"U-component_of_CURRENTS"},"data":[0,0,0,0,0,0,0,0,0,0,0,0,0,0,0,0,0,0,0,0,0,0,0,0,0,0,0,0,0,0,0,0,0,0,0,0,0,0,0,0,0,0,0,0,0,0,0,0,0,0,0,0,0,0,0,0,0,0,-0.1884,-0.1885,0,-0.1913,-0.1913,-0.1914,-0.191,-0.1909,-0.1909,-0.1909,-0.1845,-0.1843,-0.1842,0,0,0,0,0,0,0,0,0,0,0,0,0,-0.1819,-0.182,-0.1884,-0.1885,-0.1885,-0.1913,-0.1913,-0.1914,-0.191,-0.1909,-0.1909,-0.1909,-0.1845,-0.1844,-0.1842,0,0,0,0,0,0,0,0,0,0,0,0,0,-0.1846,-0.1821,-0.1884,-0.1888,-0.1889,-0.1913,-0.1914,-0.1914,-0.191,-0.1909,-0.1909,-0.1908,-0.1846,-0.1844,-0.1842,-0.1838,0,0,-0.1835,-0.1834,0,0,0,0,0,0,0,0,-0.1845,-0.1848,-0.1887,-0.1888,-0.1889,-0.1909,-0.1867,-0.1885,-0.191,-0.19,-0.1909,-0.1908,-0.1859,-0.1856,-0.1861,-0.1835,-0.1833,-0.1835,-0.1834,-0.1833,-0.1832,0,0,0,0,0,0,0,-0.1843,-0.1847,-0.1894,-0.1888,-0.1889,-0.1886,-0.1889,-0.1871,-0.1879,-0.1901,-0.1901,-0.1907,-0.1858,-0.1863,-0.1859,-0.1832,-0.1835,-0.1833,-0.1832,-0.1831,-0.181,-0.181,0,0,0,0,0,0,-0.1844,-0.1845,-0.1893,-0.1895,-0.1867,-0.1888,-0.1891,-0.1902,-0.1881,-0.1879,-0.1908,-0.1907,-0.1867,-0.1862,-0.1857,-0.1861,-0.1833,-0.1831,-0.183,-0.1809,-0.181,-0.181,0,0,0,0,0,0,-0.1842,-0.1848,-0.1892,-0.1872,-0.1877,-0.189,-0.1901,-0.1902,-0.1907,-0.1888,-0.1883,-0.1911,-0.1867,-0.186,-0.1851,-0.1857,-0.183,-0.1828,-0.1808,-0.1809,-0.181,-0.1861,0,0,0,0,0,0,-0.184,-0.1847,-0.1852,-0.1872,-0.1879,-0.1909,-0.1902,-0.1903,-0.1913,-0.1912,-0.1889,-0.1883,-0.1866,-0.1854,-0.1849,-0.1854,-0.1826,-0.1807,-0.1809,-0.181,-0.1859,-0.1864,-0.1869,0,0,0,0,0,-0.1838,-0.1847,-0.1852,-0.1858,-0.1886,-0.1909,-0.1912,-0.1918,-0.1913,-0.1919,-0.1909,-0.1883,-0.1858,-0.1854,-0.1847,-0.1851,-0.1807,-0.1808,-0.181,-0.1857,-0.1863,-0.1868,0,0,0,0,0,0,-0.1817,-0.1848,-0.1854,-0.1871,-0.189,-0.1909,-0.1914,-0.192,-0.1919,-0.1913,-0.1893,-0.1886,-0.1882,-0.1861,-0.1856,-0.185,-0.1828,-0.1828,-0.1866,-0.1871,-0.1876,-0.1874,-0.1825,0,0,0,0,0,-0.1816,-0.1832,-0.186,-0.1871,-0.1883,-0.1899,-0.1908,-0.1914,-0.1919,-0.1918,-0.1907,-0.1892,-0.1885,-0.1873,-0.1862,-0.1855,-0.1846,-0.1854,-0.1859,-0.1863,-0.1858,-0.1859,-0.1864,-0.1816,-0.1816,-0.1816,0,0,-0.1809,-0.1829,-0.1836,-0.1868,-0.1881,-0.1899,-0.1902,-0.1918,-0.193,-0.1909,-0.1914,-0.1908,-0.1888,-0.1889,-0.1884,-0.1869,-0.1876,-0.1865,-0.1869,-0.1861,-0.1861,-0.1866,-0.187,-0.1817,-0.1816,-0.1816,0,0,-0.1802,-0.1823,-0.1833,-0.1855,-0.1881,-0.1897,-0.1903,-0.1927,-0.1934,-0.1942,-0.1935,-0.1938,-0.1917,-0.1916,-0.1909,-0.1932,-0.1905,-0.1924,-0.194,-0.1942,-0.1946,-0.1949,-0.196,-0.1964,-0.1922,-0.1922,-0.1922,0,-0.1788,-0.1812,-0.1838,-0.1856,-0.1874,-0.1896,-0.1912,-0.1927,-0.1944,-0.1952,-0.1944,-0.1945,-0.1931,-0.1938,-0.195,-0.1942,-0.1939,-0.1921,-0.1949,-0.1951,-0.1954,-0.1964,-0.1968,-0.1924,-0.1924,-0.1924,-0.1924,0,-0.179,-0.1813,-0.1822,-0.1854,-0.1877,-0.1895,-0.1926,-0.1944,-0.1954,-0.1967,-0.1981,-0.1977,-0.1973,-0.1977,-0.1968,-0.1982,-0.1975,-0.196,-0.1935,-0.1962,-0.1971,-0.1974,-0.1928,-0.1927,-0.1926,-0.1926,0,0,-0.1741,-0.181,-0.181,-0.1835,-0.1879,-0.19,-0.1927,-0.196,-0.198,-0.1991,-0.2012,-0.2013,-0.2014,-0.2006,-0.2003,-0.2007,-0.2034,-0.199,-0.1989,-0.2003,-0.2044,-0.2003,-0.2001,-0.2022,-0.2022,-0.2022,-0.2051,0,-0.1729,-0.1767,-0.1805,-0.1841,-0.1865,-0.1908,-0.1937,-0.197,-0.1993,-0.2019,-0.2025,-0.2037,-0.2024,-0.2028,-0.2031,-0.2035,-0.204,-0.2028,-0.2014,-0.2014,-0.1974,-0.2002,-0.1926,-0.1941,-0.2053,-0.2053,-0.2054,0,-0.1706,-0.1743,-0.1776,-0.1851,-0.1866,-0.1889,-0.1945,-0.1976,-0.202,-0.2037,-0.2051,-0.2058,-0.2074,-0.2055,-0.2067,-0.2059,-0.2051,-0.2052,-0.2052,-0.1992,-0.1976,-0.1927,-0.1941,-0.1924,-0.2057,-0.2057,-0.2057,0,-0.1651,-0.1718,-0.1748,-0.1771,-0.1855,-0.1877,-0.1916,-0.197,-0.2008,-0.2044,-0.2069,-0.2082,-0.2094,-0.2088,-0.2083,-0.2077,-0.2092,-0.2084,-0.2041,-0.2039,-0.1959,-0.1948,-0.195,-0.2084,-0.2084,-0.2084,-0.2084,0,-0.162,-0.1641,-0.1726,-0.1744,-0.1791,-0.185,-0.19,-0.194,-0.2,-0.203,-0.2067,-0.2086,-0.21,-0.211,-0.2097,-0.2076,-0.21,-0.2047,-0.2041,-0.1976,-0.1967,-0.1934,-0.1941,-0.2085,-0.2085,-0.2085,-0.2084,0,-0.1548,-0.1604,-0.1645,-0.1734,-0.1767,-0.1791,-0.1897,-0.1928,-0.199,-0.2029,-0.204,-0.2099,-0.2107,-0.212,-0.2119,-0.2092,-0.2042,-0.206,-0.1988,-0.1971,-0.1909,-0.1921,-0.1901,-0.1846,-0.2027,-0.2026,-0.2025,0,-0.1513,-0.1527,-0.1623,-0.1659,-0.1698,-0.1763,-0.1807,-0.1899,-0.1925,-0.202,-0.2017,-0.207,-0.2074,-0.2084,-0.2058,-0.204,-0.2008,-0.1944,-0.1913,-0.1896,-0.1906,-0.1907,-0.1862,-0.1841,-0.1839,-0.1837,-0.1835,0,-0.1444,-0.1474,-0.1515,-0.1588,-0.1639,-0.1705,-0.1762,-0.179,-0.1874,-0.1917,-0.1946,-0.1971,-0.201,-0.1974,-0.1969,-0.1932,-0.1891,-0.1905,-0.1902,-0.1771,-0.1757,-0.1703,-0.1847,-0.1819,-0.1821,-0.1822,-0.1823,-0.1824,-0.1379,-0.1388,-0.1442,-0.1502,-0.1566,-0.1599,-0.1598,-0.1664,-0.1697,-0.1726,-0.1816,-0.1846,-0.1877,-0.1873,-0.1844,-0.1768,-0.1797,-0.1705,-0.1728,-0.1736,-0.1655,-0.1768,-0.1719,-0.172,-0.1721,-0.1722,-0.1723,0,-0.1296,-0.1314,-0.136,-0.1416,-0.1441,-0.1502,-0.1531,-0.1506,-0.149,-0.1585,-0.1615,-0.1704,-0.1682,-0.1712,-0.1679,-0.1614,-0.1566,-0.156,-0.1544,-0.151,-0.1617,-0.1579,-0.1479,-0.1479,-0.1479,-0.1479,-0.1479,-0.1479,-0.1252,-0.125,-0.1271,-0.1269,-0.1306,-0.1264,-0.1245,-0.1227,-0.1258,-0.1313,-0.141,-0.1532,-0.1573,-0.1691,-0.1609,-0.1529,-0.1482,-0.1436,-0.1449,-0.1535,-0.155,-0.1565,-0.153,-0.1422,-0.1422,-0.128,-0.1279,-0.1278]},{"header":{"parameterUnit":"m.s-1","parameterCategory":2,"la1":30.2991,"la2":30.254,"lo1":-89.0895,"lo2":-89.0444,"dy":0.0017,"dx":0.0017,"nx":28,"ny":28,"refTime":"2025-08-30T03:00:00:Z","depth":"0","parameterNumber":3,"parameterNumberName":"V-component_of_CURRENTS"},"data":[0,0,0,0,0,0,0,0,0,0,0,0,0,0,0,0,0,0,0,0,0,0,0,0,0,0,0,0,0,0,0,0,0,0,0,0,0,0,0,0,0,0,0,0,0,0,0,0,0,0,0,0,0,0,0,0,0,0,0.0014,0.0014,0,0.0071,0.0072,0.0073,0.0101,0.0101,0.0101,0.0101,0.0162,0.0164,0.0166,0,0,0,0,0,0,0,0,0,0,0,0,0,-0.0064,-0.0062,0.0014,0.0014,0.0015,0.0071,0.0072,0.0073,0.0101,0.0101,0.0101,0.0101,0.0162,0.0164,0.0166,0,0,0,0,0,0,0,0,0,0,0,0,0,-0.002,-0.0062,0.0014,0.0036,0.0038,0.0071,0.0072,0.0073,0.0101,0.0101,0.0101,0.0101,0.0161,0.0164,0.0166,0.0183,0,0,0.0174,0.0175,0,0,0,0,0,0,0,0,-0.0023,-0.0017,0.0032,0.0034,0.0037,0.0079,0.0067,0.011,0.0101,0.0078,0.0101,0.0101,0.0135,0.0139,0.0151,0.0186,0.0188,0.0174,0.0176,0.0177,0.0177,0,0,0,0,0,0,0,-0.0026,-0.0019,0.0037,0.0032,0.0036,0.0046,0.0052,0.0076,0.0106,0.008,0.0082,0.0088,0.0136,0.0148,0.0152,0.0189,0.0174,0.0176,0.0178,0.0179,0.0245,0.0246,0,0,0,0,0,0,-0.0034,-0.0022,0.0035,0.0039,0.0006,0.0047,0.0054,0.0066,0.0106,0.0112,0.0088,0.0089,0.0144,0.0149,0.0155,0.0174,0.0177,0.0179,0.018,0.0245,0.0245,0.0246,0,0,0,0,0,0,-0.0035,-0.0029,0.0033,0.0009,0.0017,0.0048,0.0062,0.0067,0.0078,0.0112,0.0118,0.0093,0.0144,0.0151,0.0175,0.0177,0.018,0.0182,0.0245,0.0245,0.0246,0.0214,0,0,0,0,0,0,-0.0038,-0.003,-0.0025,0.0008,0.0018,0.0046,0.0062,0.0068,0.0081,0.0083,0.0118,0.0124,0.0145,0.0171,0.0178,0.018,0.0184,0.0244,0.0245,0.0246,0.0215,0.0213,0.0212,0,0,0,0,0,-0.0041,-0.0037,-0.0025,-0.0018,0.0024,0.0046,0.0051,0.0073,0.0081,0.0083,0.011,0.0123,0.0179,0.0174,0.0181,0.0184,0.0244,0.0245,0.0245,0.0215,0.0214,0.0212,0,0,0,0,0,0,-0.0074,-0.0032,-0.0019,-0.0004,0.0016,0.005,0.0054,0.0071,0.0094,0.0095,0.0127,0.0135,0.0158,0.0176,0.0169,0.0206,0.0214,0.0216,0.0188,0.0187,0.0186,0.0174,0.0186,0,0,0,0,0,-0.0077,-0.0059,-0.0026,-0.0016,-0.0007,0.0023,0.0034,0.0049,0.0075,0.0085,0.0111,0.0139,0.0167,0.0179,0.0206,0.0224,0.0245,0.0232,0.023,0.0229,0.0225,0.0256,0.0257,0.0248,0.0248,0.0248,0,0,-0.0087,-0.0063,-0.0053,-0.0021,-0.0003,0.0004,0.003,0.0042,0.005,0.0088,0.0105,0.0137,0.0172,0.0195,0.0206,0.0208,0.0244,0.023,0.0228,0.0225,0.0257,0.0258,0.0258,0.0248,0.0248,0.0248,0,0,-0.0103,-0.0078,-0.0071,-0.0057,-0.0032,-0.0013,-0.0012,0.0021,0.0036,0.0058,0.009,0.0121,0.0158,0.0187,0.0206,0.0213,0.0238,0.0221,0.0203,0.0233,0.0234,0.0235,0.0266,0.027,0.0218,0.0218,0.0218,0,-0.0122,-0.0104,-0.0069,-0.0065,-0.006,-0.0025,-0.0028,-0.0005,0.0031,0.0045,0.0057,0.0125,0.0155,0.019,0.0193,0.021,0.023,0.0204,0.023,0.0232,0.0233,0.0265,0.027,0.0217,0.0217,0.0217,0.0217,0,-0.013,-0.0123,-0.0122,-0.0102,-0.0092,-0.0089,-0.0058,-0.0044,-0.002,0.0008,0.0048,0.0097,0.0135,0.0154,0.0176,0.0204,0.0216,0.0226,0.0231,0.0232,0.0266,0.0271,0.0214,0.0215,0.0215,0.0216,0,0,-0.0161,-0.0133,-0.0135,-0.014,-0.0112,-0.0111,-0.0096,-0.0072,-0.0063,-0.0017,0.0002,0.0063,0.0095,0.0118,0.0157,0.0186,0.0219,0.0205,0.0208,0.023,0.0286,0.0311,0.0319,0.0231,0.0231,0.0232,0.0307,0,-0.0183,-0.0188,-0.0163,-0.018,-0.0186,-0.0155,-0.0148,-0.0121,-0.0086,-0.0058,0.0005,0.0039,0.008,0.0099,0.0137,0.0201,0.0232,0.0198,0.0287,0.029,0.0306,0.0326,0.0355,0.0425,0.0312,0.0313,0.0314,0,-0.0202,-0.0205,-0.0219,-0.0224,-0.0224,-0.0226,-0.0213,-0.0199,-0.0145,-0.0118,-0.0066,-0.0014,0.005,0.0076,0.0185,0.016,0.0217,0.0266,0.027,0.0306,0.0325,0.0406,0.0439,0.0578,0.0322,0.0322,0.0321,0,-0.0244,-0.025,-0.0263,-0.0264,-0.0257,-0.026,-0.0255,-0.0215,-0.0209,-0.0151,-0.0138,-0.005,-0.0008,0.0077,0.0186,0.0184,0.0299,0.031,0.0386,0.0389,0.0438,0.0444,0.061,0.0376,0.0375,0.0375,0.0375,0,-0.0276,-0.0293,-0.0286,-0.0297,-0.0331,-0.0304,-0.032,-0.03,-0.0264,-0.0263,-0.0171,-0.0146,-0.0008,0.0079,0.0173,0.0302,0.0293,0.0389,0.0412,0.0429,0.0433,0.0574,0.062,0.0378,0.0377,0.0377,0.0376,0,-0.0315,-0.0304,-0.0334,-0.0341,-0.035,-0.0373,-0.0381,-0.039,-0.0342,-0.0337,-0.0322,-0.0213,-0.0092,0.0049,0.0196,0.0287,0.0485,0.0445,0.0458,0.0481,0.068,0.0721,0.0884,0.095,0.0548,0.0549,0.055,0,-0.0329,-0.0343,-0.0379,-0.0415,-0.042,-0.0448,-0.0471,-0.0439,-0.0446,-0.0382,-0.0387,-0.0261,-0.0175,0.0067,0.0259,0.0444,0.0536,0.0569,0.0573,0.0705,0.0768,0.0797,0.0843,0.0631,0.0633,0.0634,0.0635,0,-0.0367,-0.0377,-0.0406,-0.0482,-0.0523,-0.0565,-0.0587,-0.0603,-0.0561,-0.0541,-0.049,-0.0409,-0.0149,0.0093,0.0354,0.0465,0.0674,0.0599,0.0741,0.0852,0.0891,0.0961,0.0568,0.0646,0.0645,0.0644,0.0643,0.0643,-0.04,-0.044,-0.0485,-0.0562,-0.0616,-0.0673,-0.0703,-0.071,-0.0716,-0.0669,-0.0577,-0.0431,-0.0042,0.0344,0.0479,0.081,0.0773,0.0908,0.0948,0.0967,0.1032,0.066,0.0757,0.0757,0.0757,0.0756,0.0756,0,-0.0447,-0.0495,-0.0569,-0.0659,-0.0738,-0.0738,-0.078,-0.0792,-0.0801,-0.0715,-0.0637,-0.0227,0.0154,0.0517,0.0986,0.1159,0.1194,0.1244,0.1309,0.1339,0.1026,0.1032,0.1188,0.1188,0.1188,0.1188,0.1187,0.1187,-0.0478,-0.0555,-0.0599,-0.0747,-0.081,-0.0881,-0.0901,-0.0895,-0.0835,-0.067,-0.0453,-0.0274,0.0287,0.1049,0.1483,0.1515,0.1659,0.1639,0.1712,0.1517,0.149,0.1463,0.1483,0.1731,0.1732,0.2022,0.2025,0.2028]}],[{"header":{"parameterUnit":"m.s-1","parameterCategory":2,"la1":30.2991,"la2":30.254,"lo1":-89.0895,"lo2":-89.0444,"dy":0.0017,"dx":0.0017,"nx":28,"ny":28,"refTime":"2025-08-30T03:00:00:Z","depth":"2","parameterNumber":2,"parameterNumberName":"U-component_of_CURRENTS"},"data":[0,0,0,0,0,0,0,0,0,0,0,0,0,0,0,0,0,0,0,0,0,0,0,0,0,0,0,0,0,0,0,0,0,0,0,0,0,0,0,0,0,0,0,0,0,0,0,0,0,0,0,0,0,0,0,0,0,0,-0.1803,-0.1804,0,-0.1842,-0.1842,-0.1842,-0.1838,-0.1837,-0.1837,-0.1837,-0.1768,-0.1767,-0.1765,0,0,0,0,0,0,0,0,0,0,0,0,0,-0.1749,-0.1749,-0.1803,-0.1804,-0.1804,-0.1842,-0.1842,-0.1842,-0.1838,-0.1837,-0.1837,-0.1836,-0.1769,-0.1767,-0.1765,0,0,0,0,0,0,0,0,0,0,0,0,0,-0.1775,-0.175,-0.1803,-0.1809,-0.181,-0.1842,-0.1842,-0.1842,-0.1838,-0.1837,-0.1837,-0.1836,-0.177,-0.1767,-0.1765,-0.1761,0,0,-0.1758,-0.1757,0,0,0,0,0,0,0,0,-0.1774,-0.1777,-0.1807,-0.1809,-0.181,-0.1837,-0.1798,-0.1811,-0.1838,-0.1824,-0.1837,-0.1836,-0.1784,-0.178,-0.1786,-0.1758,-0.1755,-0.1758,-0.1757,-0.1756,-0.1755,0,0,0,0,0,0,0,-0.1772,-0.1775,-0.1815,-0.1808,-0.181,-0.1818,-0.1821,-0.1801,-0.1802,-0.1825,-0.1826,-0.1835,-0.1783,-0.1788,-0.1784,-0.1754,-0.1758,-0.1756,-0.1755,-0.1754,-0.1731,-0.1731,0,0,0,0,0,0,-0.1773,-0.1774,-0.1814,-0.1817,-0.1794,-0.182,-0.1823,-0.1826,-0.1804,-0.1802,-0.1836,-0.1835,-0.1792,-0.1787,-0.1781,-0.1786,-0.1756,-0.1754,-0.1752,-0.173,-0.1731,-0.1731,0,0,0,0,0,0,-0.1772,-0.1776,-0.1812,-0.1799,-0.1804,-0.1822,-0.1826,-0.1827,-0.1832,-0.1814,-0.1809,-0.1839,-0.1792,-0.1785,-0.1775,-0.1782,-0.1753,-0.1751,-0.1729,-0.173,-0.1731,-0.1787,0,0,0,0,0,0,-0.177,-0.1775,-0.1773,-0.1799,-0.1805,-0.1832,-0.1827,-0.1829,-0.184,-0.184,-0.1815,-0.1809,-0.1791,-0.1779,-0.1773,-0.1779,-0.1749,-0.1728,-0.1729,-0.1731,-0.1784,-0.179,-0.1794,0,0,0,0,0,-0.1767,-0.1763,-0.1772,-0.1777,-0.1803,-0.1832,-0.1836,-0.1845,-0.1841,-0.1846,-0.1836,-0.1809,-0.1783,-0.1778,-0.177,-0.1776,-0.1727,-0.1729,-0.1731,-0.1782,-0.1789,-0.1794,0,0,0,0,0,0,-0.1738,-0.1763,-0.1773,-0.1777,-0.1806,-0.1833,-0.1837,-0.1847,-0.1845,-0.1839,-0.1819,-0.1812,-0.1808,-0.1785,-0.178,-0.1774,-0.175,-0.175,-0.1791,-0.1797,-0.1803,-0.1796,-0.1747,0,0,0,0,0,-0.1733,-0.1731,-0.177,-0.1772,-0.1789,-0.1815,-0.1826,-0.1836,-0.1844,-0.1843,-0.1832,-0.1817,-0.181,-0.1799,-0.1787,-0.178,-0.1766,-0.1779,-0.1784,-0.1789,-0.1779,-0.1783,-0.1788,-0.1737,-0.1737,-0.1737,0,0,-0.1726,-0.1735,-0.1738,-0.1765,-0.1787,-0.1811,-0.1819,-0.1839,-0.1853,-0.1834,-0.1838,-0.1834,-0.1814,-0.1815,-0.181,-0.1795,-0.1799,-0.1791,-0.1795,-0.1783,-0.1785,-0.179,-0.1794,-0.1738,-0.1738,-0.1738,0,0,-0.1706,-0.1721,-0.1717,-0.1745,-0.1778,-0.1801,-0.1809,-0.1843,-0.1852,-0.1863,-0.1858,-0.1864,-0.1843,-0.1843,-0.1836,-0.1861,-0.183,-0.1853,-0.1868,-0.1872,-0.1876,-0.188,-0.1882,-0.1885,-0.1851,-0.1851,-0.1852,0,-0.1693,-0.17,-0.1723,-0.1734,-0.176,-0.1798,-0.1818,-0.1836,-0.186,-0.1871,-0.1865,-0.187,-0.1857,-0.1866,-0.1879,-0.1872,-0.1866,-0.1847,-0.1879,-0.1882,-0.1885,-0.1886,-0.1889,-0.1854,-0.1854,-0.1854,-0.1853,0,-0.168,-0.1693,-0.1698,-0.1725,-0.1754,-0.1779,-0.1823,-0.1844,-0.1861,-0.188,-0.1898,-0.1899,-0.1898,-0.1904,-0.1895,-0.1911,-0.19,-0.1891,-0.1864,-0.1893,-0.1893,-0.1895,-0.1858,-0.1857,-0.1857,-0.1856,0,0,-0.1637,-0.168,-0.1683,-0.1707,-0.1757,-0.1784,-0.1813,-0.1857,-0.1878,-0.1898,-0.192,-0.1928,-0.1934,-0.1927,-0.1929,-0.1935,-0.196,-0.1919,-0.1918,-0.1923,-0.1968,-0.1912,-0.1909,-0.1956,-0.1957,-0.1957,-0.1965,0,-0.1624,-0.1645,-0.167,-0.1709,-0.1739,-0.1788,-0.1816,-0.1857,-0.1887,-0.1916,-0.1931,-0.1946,-0.1941,-0.1948,-0.1955,-0.1961,-0.1965,-0.1958,-0.1937,-0.1936,-0.1884,-0.1909,-0.1767,-0.1758,-0.1967,-0.1967,-0.1967,0,-0.1603,-0.1627,-0.1658,-0.172,-0.1738,-0.1762,-0.1828,-0.1858,-0.1906,-0.1925,-0.1946,-0.1959,-0.198,-0.1968,-0.1983,-0.1979,-0.1971,-0.1972,-0.1973,-0.1897,-0.1883,-0.1759,-0.1753,-0.197,-0.197,-0.1969,-0.1969,0,-0.157,-0.162,-0.1646,-0.167,-0.1741,-0.1761,-0.18,-0.1855,-0.1889,-0.193,-0.1951,-0.1975,-0.1986,-0.1989,-0.1986,-0.1988,-0.1993,-0.1997,-0.1939,-0.1936,-0.1796,-0.1779,-0.1995,-0.1995,-0.1995,-0.1995,-0.1995,0,-0.1548,-0.1569,-0.1633,-0.1653,-0.1697,-0.1747,-0.1791,-0.183,-0.1882,-0.1904,-0.1949,-0.1961,-0.199,-0.1997,-0.1992,-0.1965,-0.1995,-0.1939,-0.1932,-0.1813,-0.1798,-0.196,-0.1956,-0.1995,-0.1995,-0.1995,-0.1995,0,-0.1498,-0.154,-0.1575,-0.1649,-0.1679,-0.1705,-0.1788,-0.1807,-0.1868,-0.1895,-0.1906,-0.1959,-0.1964,-0.1982,-0.1986,-0.1964,-0.1951,-0.1927,-0.1784,-0.176,-0.1894,-0.1893,-0.1881,-0.1879,-0.1877,-0.1876,-0.1875,0,-0.1473,-0.1486,-0.1563,-0.1583,-0.1613,-0.1671,-0.17,-0.1784,-0.1792,-0.1876,-0.1862,-0.1909,-0.1904,-0.1909,-0.1882,-0.1864,-0.1902,-0.1709,-0.1687,-0.1887,-0.1881,-0.1883,-0.1884,-0.1533,-0.1529,-0.1526,-0.1523,0,-0.1422,-0.1442,-0.1468,-0.1508,-0.1541,-0.1588,-0.1626,-0.1648,-0.1718,-0.1755,-0.1772,-0.1795,-0.1813,-0.1737,-0.1722,-0.1686,-0.1706,-0.1645,-0.1881,-0.1584,-0.1559,-0.1554,-0.1566,-0.1495,-0.1498,-0.15,-0.1502,-0.1503,-0.1361,-0.1368,-0.1386,-0.1414,-0.1454,-0.1462,-0.1458,-0.1498,-0.1524,-0.1545,-0.1624,-0.162,-0.1635,-0.1557,-0.1492,-0.1442,-0.1563,-0.1484,-0.1494,-0.1506,-0.1465,-0.1438,-0.1344,-0.1346,-0.1348,-0.1349,-0.135,0,-0.1261,-0.1278,-0.1294,-0.1305,-0.1281,-0.1347,-0.1366,-0.1341,-0.1331,-0.1386,-0.1408,-0.1311,-0.1284,-0.13,-0.12,-0.119,-0.1174,-0.1121,-0.1099,-0.1128,-0.1153,-0.1094,-0.0875,-0.0873,-0.0872,-0.087,0,0,-0.1206,-0.1173,-0.1186,-0.1119,-0.1129,-0.1082,-0.1075,-0.1072,-0.1087,-0.1083,-0.1093,-0.1216,-0.1265,-0.1071,-0.103,-0.0936,-0.1015,-0.0884,-0.1266,-0.1268,-0.1292,-0.1363,-0.1303,0,0,0,0,0]},{"header":{"parameterUnit":"m.s-1","parameterCategory":2,"la1":30.2991,"la2":30.254,"lo1":-89.0895,"lo2":-89.0444,"dy":0.0017,"dx":0.0017,"nx":28,"ny":28,"refTime":"2025-08-30T03:00:00:Z","depth":"2","parameterNumber":3,"parameterNumberName":"V-component_of_CURRENTS"},"data":[0,0,0,0,0,0,0,0,0,0,0,0,0,0,0,0,0,0,0,0,0,0,0,0,0,0,0,0,0,0,0,0,0,0,0,0,0,0,0,0,0,0,0,0,0,0,0,0,0,0,0,0,0,0,0,0,0,0,0.002,0.0021,0,0.0074,0.0074,0.0075,0.0102,0.0102,0.0102,0.0102,0.0157,0.0158,0.016,0,0,0,0,0,0,0,0,0,0,0,0,0,-0.0057,-0.0056,0.002,0.0021,0.0021,0.0074,0.0074,0.0075,0.0102,0.0102,0.0102,0.0102,0.0156,0.0158,0.016,0,0,0,0,0,0,0,0,0,0,0,0,0,-0.0015,-0.0055,0.002,0.0041,0.0043,0.0073,0.0074,0.0075,0.0102,0.0102,0.0102,0.0102,0.0156,0.0158,0.016,0.0175,0,0,0.0167,0.0168,0,0,0,0,0,0,0,0,-0.0017,-0.0012,0.0037,0.0039,0.0042,0.0081,0.0067,0.0108,0.0103,0.0081,0.0102,0.0102,0.0131,0.0135,0.0146,0.0177,0.018,0.0167,0.0169,0.0169,0.017,0,0,0,0,0,0,0,-0.002,-0.0014,0.0042,0.0038,0.0041,0.0048,0.0054,0.0075,0.0106,0.0083,0.0085,0.0089,0.0133,0.0144,0.0148,0.018,0.0167,0.0169,0.017,0.0171,0.0232,0.0233,0,0,0,0,0,0,-0.0028,-0.0017,0.004,0.0044,0.0011,0.0049,0.0056,0.0069,0.0106,0.0111,0.0089,0.0091,0.0141,0.0145,0.015,0.0168,0.0169,0.0172,0.0173,0.0232,0.0232,0.0233,0,0,0,0,0,0,-0.003,-0.0023,0.0038,0.0013,0.0022,0.0051,0.0065,0.007,0.008,0.0111,0.0116,0.0094,0.0141,0.0147,0.0169,0.017,0.0173,0.0175,0.0232,0.0232,0.0233,0.0205,0,0,0,0,0,0,-0.0032,-0.0024,-0.0019,0.0013,0.0023,0.005,0.0065,0.0071,0.0083,0.0085,0.0117,0.0122,0.0141,0.0166,0.0172,0.0173,0.0176,0.0231,0.0232,0.0232,0.0205,0.0204,0.0203,0,0,0,0,0,-0.0035,-0.0031,-0.0019,-0.0012,0.0029,0.005,0.0055,0.0076,0.0083,0.0085,0.011,0.0121,0.0173,0.0168,0.0175,0.0177,0.0231,0.0232,0.0232,0.0206,0.0204,0.0203,0,0,0,0,0,0,-0.0069,-0.0027,-0.0013,0.0002,0.0022,0.0054,0.0056,0.0073,0.0095,0.0096,0.0126,0.0133,0.0154,0.017,0.0163,0.0197,0.0204,0.0206,0.0181,0.018,0.0179,0.0166,0.0178,0,0,0,0,0,-0.0072,-0.0054,-0.002,-0.001,-0.0002,0.0027,0.0038,0.0052,0.0077,0.0086,0.0111,0.0137,0.0163,0.0174,0.0198,0.0215,0.0233,0.0221,0.022,0.0219,0.0214,0.0244,0.0245,0.0235,0.0235,0.0235,0,0,-0.0083,-0.0059,-0.0049,-0.0016,0.0001,0.0007,0.0033,0.0045,0.0052,0.0088,0.0104,0.0135,0.0168,0.0189,0.0199,0.02,0.0233,0.022,0.0218,0.0214,0.0245,0.0246,0.0247,0.0235,0.0235,0.0235,0,0,-0.0103,-0.0075,-0.007,-0.0055,-0.0031,-0.0011,-0.001,0.0022,0.0038,0.0059,0.009,0.0121,0.0154,0.0182,0.0199,0.0207,0.0228,0.0214,0.0196,0.0226,0.0227,0.0228,0.0254,0.0258,0.0211,0.0211,0.0211,0,-0.0124,-0.0106,-0.0069,-0.0066,-0.0061,-0.0023,-0.0028,-0.0005,0.0031,0.0044,0.0057,0.0123,0.0152,0.0184,0.0188,0.0204,0.0222,0.0196,0.0224,0.0225,0.0226,0.0253,0.0258,0.0209,0.021,0.021,0.021,0,-0.0136,-0.0129,-0.0129,-0.0108,-0.0098,-0.0096,-0.0063,-0.0048,-0.0023,0.0006,0.0045,0.0094,0.0131,0.015,0.0172,0.0199,0.0209,0.022,0.0223,0.0226,0.0254,0.0259,0.0208,0.0208,0.0208,0.0209,0,0,-0.0171,-0.0143,-0.0145,-0.015,-0.0121,-0.0119,-0.0104,-0.0079,-0.0071,-0.0023,-0.0005,0.0056,0.009,0.0112,0.0151,0.0181,0.0213,0.02,0.0202,0.022,0.0276,0.029,0.0297,0.0227,0.0227,0.0228,0.0292,0,-0.0198,-0.0205,-0.0179,-0.0198,-0.0204,-0.017,-0.0162,-0.0134,-0.0097,-0.0069,-0.0004,0.003,0.0073,0.0093,0.0131,0.0195,0.0224,0.0194,0.0276,0.0279,0.0286,0.0302,0.0277,0.0333,0.0297,0.0297,0.0298,0,-0.022,-0.0224,-0.024,-0.0245,-0.0245,-0.0246,-0.0231,-0.0217,-0.0161,-0.0134,-0.008,-0.0027,0.0037,0.0066,0.0174,0.0152,0.0207,0.0255,0.0259,0.0283,0.0302,0.0326,0.0343,0.0307,0.0306,0.0305,0.0305,0,-0.0263,-0.0272,-0.0287,-0.0287,-0.0279,-0.0282,-0.0276,-0.0234,-0.0227,-0.0169,-0.0155,-0.0067,-0.0025,0.006,0.0169,0.017,0.028,0.0295,0.0359,0.036,0.0361,0.0362,0.0358,0.0357,0.0357,0.0357,0.0357,0,-0.0299,-0.0319,-0.031,-0.032,-0.0355,-0.0326,-0.0342,-0.0321,-0.0285,-0.0279,-0.019,-0.0164,-0.0026,0.0057,0.0153,0.0275,0.027,0.0359,0.038,0.0352,0.035,0.0343,0.0341,0.036,0.0359,0.0359,0.0358,0,-0.0346,-0.0332,-0.0362,-0.0366,-0.0374,-0.0397,-0.0403,-0.041,-0.0363,-0.0353,-0.0338,-0.0233,-0.0116,0.0021,0.0165,0.0251,0.0365,0.0402,0.036,0.0375,0.0429,0.0424,0.0487,0.0489,0.0489,0.049,0.0491,0,-0.0368,-0.0382,-0.0409,-0.0438,-0.0444,-0.047,-0.049,-0.0459,-0.046,-0.0396,-0.0396,-0.0279,-0.0194,0.0031,0.0204,0.0379,0.038,0.0447,0.045,0.0429,0.0443,0.0437,0.0432,0.0442,0.0443,0.0443,0.0443,0,-0.0423,-0.0425,-0.0452,-0.0511,-0.0544,-0.058,-0.0597,-0.0609,-0.0563,-0.054,-0.0482,-0.0404,-0.0175,0.0023,0.0255,0.0353,0.0422,0.0456,0.0451,0.041,0.0391,0.0403,0.0399,0.0444,0.0444,0.0444,0.0444,0.0444,-0.0462,-0.0506,-0.0536,-0.0595,-0.0638,-0.0677,-0.07,-0.0699,-0.0697,-0.0638,-0.0555,-0.042,-0.0208,0.0122,0.029,0.0451,0.0456,0.0497,0.0494,0.0492,0.0473,0.0456,0.0518,0.0518,0.0518,0.0518,0.0518,0,-0.0503,-0.0559,-0.0624,-0.0684,-0.0737,-0.0739,-0.0767,-0.0768,-0.0763,-0.0679,-0.0598,-0.0377,-0.0132,0.0088,0.0348,0.0503,0.0495,0.052,0.0481,0.0479,0.0478,0.0456,0.0497,0.0497,0.0498,0.0498,0,0,-0.0528,-0.0601,-0.0642,-0.0751,-0.0797,-0.0851,-0.0862,-0.0847,-0.0789,-0.0713,-0.0599,-0.0417,-0.0138,0.0039,0.024,0.0375,0.0382,0.0383,0.0384,0.0313,0.0309,0.045,0.0413,0,0,0,0,0]}],[{"header":{"parameterUnit":"m.s-1","parameterCategory":2,"la1":30.2991,"la2":30.254,"lo1":-89.0895,"lo2":-89.0444,"dy":0.0017,"dx":0.0017,"nx":28,"ny":28,"refTime":"2025-08-30T03:00:00:Z","depth":"4","parameterNumber":2,"parameterNumberName":"U-component_of_CURRENTS"},"data":[0,0,0,0,0,0,0,0,0,0,0,0,0,0,0,0,0,0,0,0,0,0,0,0,0,0,0,0,0,0,0,0,0,0,0,0,0,0,0,0,0,0,0,0,0,0,0,0,0,0,0,0,0,0,0,0,0,0,-0.077,-0.077,0,-0.0732,-0.0731,-0.0731,-0.0733,-0.0733,-0.0734,-0.0735,-0.0868,-0.087,-0.0873,0,0,0,0,0,0,0,0,0,0,0,0,0,-0.0761,-0.0762,-0.077,-0.077,-0.077,-0.0732,-0.0731,-0.0731,-0.0733,-0.0734,-0.0734,-0.0735,-0.0867,-0.087,-0.0873,0,0,0,0,0,0,0,0,0,0,0,0,0,-0.0747,-0.0762,-0.077,-0.0768,-0.0767,-0.0732,-0.0731,-0.073,-0.0732,-0.0734,-0.0735,-0.0736,-0.0866,-0.087,-0.0874,-0.0878,0,0,-0.0887,-0.0889,0,0,0,0,0,0,0,0,-0.0747,-0.0747,-0.0768,-0.0768,-0.0767,-0.074,-0.0777,-0.0789,-0.0732,-0.0743,-0.0735,-0.0736,-0.0842,-0.0848,-0.0832,-0.0884,-0.089,-0.0887,-0.089,-0.0892,-0.0893,0,0,0,0,0,0,0,-0.0749,-0.0748,-0.0753,-0.0768,-0.0767,-0.074,-0.074,-0.0778,-0.0788,-0.0742,-0.0743,-0.0742,-0.0842,-0.0828,-0.0836,-0.0892,-0.0887,-0.0891,-0.0894,-0.0895,-0.1059,-0.1061,0,0,0,0,0,0,-0.0761,-0.0749,-0.0754,-0.0752,-0.0762,-0.074,-0.0739,-0.0746,-0.0784,-0.079,-0.0741,-0.0742,-0.082,-0.0831,-0.0841,-0.0959,-0.0892,-0.0896,-0.0898,-0.1057,-0.1059,-0.1061,0,0,0,0,0,0,-0.0761,-0.0762,-0.0756,-0.0751,-0.0748,-0.074,-0.0746,-0.0745,-0.0737,-0.0781,-0.0791,-0.0737,-0.0822,-0.0835,-0.0905,-0.096,-0.0898,-0.0901,-0.1055,-0.1058,-0.106,-0.1124,0,0,0,0,0,0,-0.0761,-0.0762,-0.0777,-0.0752,-0.0749,-0.076,-0.0746,-0.0743,-0.0736,-0.0737,-0.0781,-0.0794,-0.0824,-0.0899,-0.0909,-0.0965,-0.0905,-0.1053,-0.1056,-0.1059,-0.112,-0.1129,-0.1137,0,0,0,0,0,-0.0761,-0.0789,-0.0778,-0.0779,-0.0769,-0.0761,-0.0757,-0.0752,-0.0735,-0.0745,-0.078,-0.0793,-0.0928,-0.0903,-0.0915,-0.0974,-0.1051,-0.1055,-0.1059,-0.1116,-0.1127,-0.1136,0,0,0,0,0,0,-0.0793,-0.0791,-0.0779,-0.0805,-0.0791,-0.0763,-0.0781,-0.075,-0.0774,-0.0797,-0.0812,-0.0829,-0.0907,-0.0926,-0.0898,-0.1029,-0.0993,-0.0999,-0.1032,-0.1043,-0.1051,-0.1028,-0.0908,0,0,0,0,0,-0.0805,-0.0827,-0.0806,-0.0825,-0.0829,-0.0796,-0.0791,-0.0787,-0.0798,-0.0807,-0.0837,-0.0883,-0.0928,-0.0973,-0.1015,-0.1088,-0.1075,-0.1133,-0.1142,-0.1149,-0.1139,-0.1142,-0.1149,-0.1075,-0.1075,-0.1075,0,0,-0.0815,-0.0823,-0.083,-0.0834,-0.0829,-0.0837,-0.0798,-0.0813,-0.0832,-0.0825,-0.0887,-0.091,-0.0949,-0.1034,-0.1072,-0.1064,-0.1172,-0.1154,-0.116,-0.1145,-0.1147,-0.1154,-0.116,-0.1077,-0.1077,-0.1076,0,0,-0.0844,-0.0864,-0.0884,-0.0887,-0.0895,-0.0886,-0.0888,-0.0878,-0.0898,-0.0937,-0.0948,-0.0974,-0.1062,-0.1086,-0.111,-0.1179,-0.1202,-0.1234,-0.1279,-0.1284,-0.1289,-0.1294,-0.1318,-0.1324,-0.1254,-0.1255,-0.1255,0,-0.0854,-0.0876,-0.0886,-0.0909,-0.0915,-0.0906,-0.0916,-0.0941,-0.0957,-0.0976,-0.0979,-0.1054,-0.1066,-0.1146,-0.118,-0.1193,-0.1229,-0.124,-0.1293,-0.1297,-0.13,-0.1324,-0.133,-0.1258,-0.1258,-0.1257,-0.1257,0,-0.0884,-0.0909,-0.0932,-0.0957,-0.0968,-0.0989,-0.1014,-0.1052,-0.1061,-0.1061,-0.1133,-0.1151,-0.1184,-0.1211,-0.122,-0.1283,-0.1313,-0.1288,-0.1262,-0.1311,-0.1334,-0.1339,-0.1263,-0.1262,-0.1261,-0.126,0,0,-0.0873,-0.0935,-0.094,-0.0954,-0.0996,-0.1002,-0.1075,-0.1104,-0.1134,-0.1182,-0.1213,-0.1267,-0.1265,-0.1289,-0.1316,-0.1331,-0.1372,-0.1349,-0.1347,-0.1364,-0.1438,-0.1349,-0.1345,-0.1394,-0.1394,-0.1395,-0.1455,0,-0.088,-0.0924,-0.0955,-0.0992,-0.101,-0.1051,-0.1105,-0.1149,-0.1183,-0.1232,-0.1268,-0.131,-0.1311,-0.1338,-0.1357,-0.1365,-0.1387,-0.136,-0.1395,-0.1395,-0.1301,-0.1346,-0.1396,-0.1458,-0.146,-0.146,-0.1461,0,-0.0883,-0.0913,-0.0947,-0.1003,-0.1016,-0.1046,-0.1112,-0.1159,-0.1243,-0.1277,-0.1335,-0.1367,-0.1423,-0.1392,-0.1443,-0.1455,-0.145,-0.1446,-0.1448,-0.1335,-0.1312,-0.1392,-0.1469,-0.1468,-0.1468,-0.1467,-0.1467,0,-0.0844,-0.0903,-0.0929,-0.0948,-0.1017,-0.1051,-0.1089,-0.1163,-0.1213,-0.1306,-0.1343,-0.1421,-0.1454,-0.148,-0.148,-0.1487,-0.1519,-0.1503,-0.1422,-0.1418,-0.1451,-0.1444,-0.1509,-0.1509,-0.1508,-0.1508,-0.1508,0,-0.0828,-0.0851,-0.0917,-0.0932,-0.0969,-0.1026,-0.1075,-0.1136,-0.1225,-0.1285,-0.1363,-0.1421,-0.148,-0.1515,-0.1514,-0.1489,-0.1541,-0.1428,-0.1419,-0.1483,-0.148,-0.1456,-0.1449,-0.151,-0.151,-0.151,-0.1509,0,-0.0783,-0.0827,-0.0862,-0.0932,-0.0953,-0.0979,-0.1064,-0.1106,-0.1198,-0.1283,-0.1325,-0.1433,-0.1483,-0.1523,-0.1545,-0.1502,-0.1489,-0.1459,-0.1549,-0.1544,-0.1387,-0.1384,-0.1388,-0.1385,-0.1383,-0.1381,-0.1379,0,-0.0765,-0.0779,-0.0845,-0.086,-0.0894,-0.0942,-0.0981,-0.1083,-0.1139,-0.1283,-0.1328,-0.1413,-0.1474,-0.1444,-0.1481,-0.148,-0.1449,-0.144,-0.1388,-0.1381,-0.1372,-0.1372,-0.1371,-0.1375,-0.1374,-0.1374,-0.1373,0,-0.0724,-0.0756,-0.0782,-0.0805,-0.0842,-0.0893,-0.0963,-0.1001,-0.1135,-0.1225,-0.13,-0.133,-0.1377,-0.1396,-0.1395,-0.1389,-0.1447,-0.1415,-0.1419,-0.137,-0.1365,-0.1359,-0.1361,-0.1365,-0.1366,-0.1367,-0.1367,0,-0.0693,-0.0698,-0.0724,-0.074,-0.0785,-0.0835,-0.0883,-0.0957,-0.1025,-0.1196,-0.1213,-0.1299,-0.1375,-0.1348,-0.1355,-0.1337,-0.1314,-0.1263,-0.1275,-0.1284,-0.1217,-0.1194,-0.1133,0,0,0,0,0,-0.0651,-0.0643,-0.0652,-0.0674,-0.0721,-0.0752,-0.0868,-0.0932,-0.1063,-0.1088,-0.1153,-0.1196,-0.1215,-0.1249,-0.1208,-0.1302,-0.1314,-0.1248,-0.126,-0.1319,-0.1328,-0.1255,0,0,0,0,0,0,-0.0619,-0.0627,-0.0623,-0.0613,-0.0619,-0.0678,-0.0756,-0.0854,-0.0882,-0.1009,-0.1021,-0.1104,-0.1132,-0.1208,-0.1172,-0.1183,-0.1164,-0.1296,-0.1293,-0.1313,-0.1322,-0.133,-0.1258,0,0,0,0,0]},{"header":{"parameterUnit":"m.s-1","parameterCategory":2,"la1":30.2991,"la2":30.254,"lo1":-89.0895,"lo2":-89.0444,"dy":0.0017,"dx":0.0017,"nx":28,"ny":28,"refTime":"2025-08-30T03:00:00:Z","depth":"4","parameterNumber":3,"parameterNumberName":"V-component_of_CURRENTS"},"data":[0,0,0,0,0,0,0,0,0,0,0,0,0,0,0,0,0,0,0,0,0,0,0,0,0,0,0,0,0,0,0,0,0,0,0,0,0,0,0,0,0,0,0,0,0,0,0,0,0,0,0,0,0,0,0,0,0,0,0.0005,0.0005,0,-0.0004,-0.0004,-0.0004,0.0004,0.0005,0.0006,0.0006,0.0035,0.0035,0.0035,0,0,0,0,0,0,0,0,0,0,0,0,0,0.0,-0.0,0.0005,0.0005,0.0005,-0.0004,-0.0004,-0.0004,0.0004,0.0005,0.0006,0.0007,0.0035,0.0035,0.0035,0,0,0,0,0,0,0,0,0,0,0,0,0,-0.0005,-0.0,0.0005,0.0011,0.0012,-0.0003,-0.0004,-0.0005,0.0004,0.0005,0.0006,0.0007,0.0035,0.0035,0.0035,0.0016,0,0,0.0036,0.0036,0,0,0,0,0,0,0,0,-0.0005,-0.0006,0.001,0.0011,0.0012,0.0006,0.0005,0.0005,0.0004,0.0003,0.0006,0.0008,0.003,0.0031,0.0021,0.0017,0.0019,0.0036,0.0036,0.0036,0.0036,0,0,0,0,0,0,0,-0.0005,-0.0005,-0.0002,0.001,0.0011,0.0005,0.0005,0.0004,0.0009,0.0003,0.0005,0.0009,0.003,0.0021,0.0022,0.0019,0.0036,0.0036,0.0036,0.0036,0.0039,0.0039,0,0,0,0,0,0,0.0004,-0.0005,-0.0002,-0.0002,0.001,0.0005,0.0005,0.0004,0.0008,0.0011,0.0009,0.001,0.002,0.0022,0.0023,0.0043,0.0036,0.0036,0.0036,0.0039,0.0039,0.0039,0,0,0,0,0,0,0.0004,0.0004,-0.0001,-0.0,-0.0001,0.0004,0.0003,0.0003,-0.0002,0.0012,0.0015,0.0005,0.0021,0.0023,0.0034,0.0043,0.0036,0.0036,0.0039,0.0039,0.0039,0.0056,0,0,0,0,0,0,0.0003,0.0004,-0.0001,-0.0,-0.0001,-0.0008,0.0002,0.0002,0.0001,0.0002,0.001,0.0013,0.0022,0.0033,0.0034,0.0043,0.0036,0.0039,0.0039,0.0039,0.0056,0.0057,0.0058,0,0,0,0,0,0.0003,-0.0007,-0.0001,-0.0001,-0.0005,-0.0008,-0.0009,-0.0004,-0.0,-0.0006,0.0007,0.0013,0.0033,0.0033,0.0034,0.0044,0.0039,0.0039,0.0039,0.0055,0.0056,0.0057,0,0,0,0,0,0,-0.0016,-0.0006,-0.0001,-0.0008,-0.0005,-0.0005,-0.0011,-0.0007,-0.0006,0.0,0.0011,0.0015,0.0025,0.0028,0.0028,0.0043,0.0037,0.0037,0.0049,0.005,0.0051,0.0033,0.0037,0,0,0,0,0,-0.0021,-0.0025,-0.0014,-0.0022,-0.0019,-0.0016,-0.0018,-0.0012,-0.0006,-0.0005,0.0006,0.0016,0.0021,0.0033,0.0034,0.0043,0.0047,0.0049,0.005,0.0051,0.0035,0.0052,0.0053,0.0039,0.0039,0.0039,0,0,-0.0031,-0.0026,-0.0029,-0.0026,-0.0025,-0.0029,-0.0016,-0.0017,-0.0018,-0.0002,0.0001,0.0014,0.0021,0.0034,0.0039,0.0043,0.0061,0.0051,0.0052,0.0035,0.0052,0.0053,0.0055,0.0039,0.0039,0.0039,0,0,-0.0055,-0.0048,-0.0058,-0.0054,-0.0046,-0.0041,-0.0039,-0.0031,-0.0024,-0.002,-0.0005,0.0007,0.0019,0.0029,0.0034,0.0035,0.0058,0.005,0.0051,0.0068,0.007,0.0071,0.0098,0.0101,0.0061,0.0061,0.0061,0,-0.0068,-0.0078,-0.0062,-0.0069,-0.0071,-0.0046,-0.0058,-0.0049,-0.0036,-0.003,-0.0018,0.0001,0.0008,0.0024,0.0031,0.0036,0.0062,0.005,0.007,0.0071,0.0072,0.0099,0.0103,0.0061,0.0061,0.0061,0.0061,0,-0.0097,-0.0104,-0.0109,-0.0108,-0.0108,-0.0112,-0.0091,-0.0083,-0.0068,-0.0055,-0.0035,-0.0016,-0.0005,0.001,0.0022,0.0041,0.0064,0.0065,0.0069,0.0075,0.0103,0.0107,0.0063,0.0062,0.0062,0.0062,0,0,-0.0127,-0.0131,-0.0132,-0.0142,-0.0128,-0.0133,-0.0126,-0.0116,-0.0115,-0.0081,-0.0078,-0.0051,-0.0026,-0.002,0.0011,0.0036,0.0071,0.0064,0.0064,0.0093,0.0133,0.0137,0.0142,0.0095,0.0095,0.0095,0.0158,0,-0.0156,-0.0183,-0.0173,-0.0198,-0.0209,-0.0185,-0.0185,-0.0168,-0.0144,-0.0129,-0.0088,-0.0075,-0.0037,-0.0023,0.001,0.0049,0.0078,0.0054,0.0119,0.0121,0.0126,0.0144,0.0096,0.0161,0.0161,0.0162,0.0162,0,-0.0183,-0.02,-0.0231,-0.0245,-0.0248,-0.0256,-0.0252,-0.0247,-0.0209,-0.019,-0.015,-0.0112,-0.0066,-0.0045,0.0039,0.0034,0.0078,0.0113,0.0116,0.0109,0.013,0.0148,0.0168,0.0168,0.0168,0.0167,0.0167,0,-0.0212,-0.0237,-0.0267,-0.0272,-0.0281,-0.0292,-0.0292,-0.0266,-0.0264,-0.0223,-0.0213,-0.0143,-0.0117,-0.0045,0.004,0.0046,0.0131,0.0139,0.0184,0.0186,0.0156,0.0154,0.0179,0.0179,0.0179,0.0179,0.0179,0,-0.024,-0.0264,-0.0287,-0.0303,-0.034,-0.0329,-0.0351,-0.0337,-0.0317,-0.0311,-0.0243,-0.0217,-0.0115,-0.0045,0.0033,0.0127,0.0127,0.018,0.0199,0.0165,0.0163,0.016,0.0157,0.0181,0.0181,0.018,0.018,0,-0.0258,-0.0273,-0.0313,-0.0341,-0.0354,-0.0378,-0.0397,-0.0406,-0.0378,-0.0368,-0.0356,-0.0273,-0.0173,-0.0065,0.0045,0.0106,0.0194,0.0222,0.0186,0.0202,0.0242,0.0239,0.0278,0.0279,0.0279,0.028,0.028,0,-0.0269,-0.0291,-0.0344,-0.0376,-0.0392,-0.0425,-0.0447,-0.0438,-0.0441,-0.0394,-0.0389,-0.0298,-0.0228,-0.0061,0.0048,0.0199,0.0213,0.0257,0.024,0.0236,0.0251,0.0247,0.0243,0.0281,0.0281,0.0281,0.0281,0,-0.0289,-0.0309,-0.0341,-0.0408,-0.0448,-0.049,-0.0515,-0.0522,-0.0498,-0.0478,-0.0409,-0.031,-0.0201,-0.0062,0.0053,0.016,0.023,0.0262,0.0262,0.0247,0.024,0.0253,0.0249,0.0283,0.0283,0.0283,0.0283,0,-0.0299,-0.0329,-0.0376,-0.0432,-0.0491,-0.0536,-0.0547,-0.0541,-0.0538,-0.0477,-0.0453,-0.0322,-0.0245,-0.0082,0.0028,0.0133,0.0155,0.0177,0.0182,0.0181,0.0134,0.011,0.0126,0,0,0,0,0,-0.0302,-0.0338,-0.0398,-0.0465,-0.0526,-0.0558,-0.0585,-0.0583,-0.0558,-0.0517,-0.0483,-0.0373,-0.0196,-0.0116,-0.0011,0.003,0.0165,0.0154,0.0192,0.0293,0.0291,0.0251,0,0,0,0,0,0,-0.0306,-0.0358,-0.0395,-0.0479,-0.0529,-0.0592,-0.061,-0.0595,-0.0562,-0.0519,-0.0424,-0.0359,-0.0187,-0.0258,-0.0013,0.002,0.0056,0.0243,0.0245,0.0294,0.0292,0.029,0.0249,0,0,0,0,0]}]]